Temperature
7 7 7 7 7 7 7 6 6 6 6 6 6 5 5 5 5 5 5 5 5 5 4 4 4 4 4 3 3 3 3 2 2 3 3 3 3 3 3 3 3 3 3
7 7 7 7 7 7 6 6 6 6 6 5 5 5 5 5 5 4 4 4 4 4 4 4 4 3 3 3 3 3 2 2 2 2 2 2 2 2 2 2 3 3 3
7 7 7 7 6 6 6 6 6 5 5 5 5 5 5 4 4 4 4 4 4 4 3 3 3 3 3 2 2 2 2 2 1 1 1 1 2 1 2 2 2 2 2
7 7 7 6 6 6 6 5 5 5 5 5 5 4 4 4 4 4 3 3 3 3 3 3 3 2 2 2 2 1 1 1 1 0 0 1 1 1 1 1 2 2 2
6 6 6 6 6 6 5 5 5 5 5 4 4 4 4 3 3 3 3 3 3 2 2 2 2 2 1 1 1 0 0 -0 -0 -0 -0 -0 -0 -0 -0 -0 -0 0 1
6 6 6 6 5 5 5 5 5 4 4 4 4 4 3 3 3 3 2 2 2 2 2 2 1 1 1 0 -0 -0 -1 -1 -1 -1 -1 -1 -1 -1 -2 -2 -2 -1 -1
6 6 6 5 5 5 5 4 4 4 4 4 3 3 3 3 2 2 2 2 2 1 1 1 1 0 -0 -0 -1 -1 -1 -1 -2 -2 -2 -2 -2 -2 -3 -2 -2 -2 -2
5 5 5 5 5 4 4 4 4 4 3 3 3 3 2 2 2 1 1 1 1 1 1 0 0 -0 -1 -1 -1 -1 -1 -2 -2 -2 -3 -3 -3 -3 -3 -4 -4 -3 -3
5 5 5 4 4 4 4 4 3 3 3 3 2 2 2 2 1 1 1 0 0 0 -0 -0 -1 -1 -1 -2 -2 -2 -2 -2 -3 -3 -3 -3 -3 -4 -4 -4 -4 -4 -4
5 4 4 4 4 4 3 3 3 3 3 2 2 2 2 1 1 0 -0 -0 -0 -0 -1 -1 -1 -2 -2 -3 -3 -3 -3 -3 -3 -3 -3 -3 -4 -4 -4 -4 -5 -5 -5
4 4 4 4 3 3 3 3 3 2 2 2 2 1 1 1 1 0 -0 -1 -1 -1 -1 -1 -2 -2 -3 -3 -3 -3 -4 -4 -4 -4 -4 -4 -4 -4 -4 -5 -5 -5 -6
4 3 3 3 3 2 2 2 2 2 2 1 1 1 1 1 0 -0 -1 -1 -1 -1 -1 -2 -2 -3 -3 -3 -4 -4 -4 -4 -4 -4 -4 -4 -4 -5 -5 -5 -5 -6 -6
3 3 3 3 2 2 2 2 2 1 1 1 1 1 1 0 -0 -1 -1 -1 -2 -2 -2 -2 -3 -3 -4 -4 -4 -4 -5 -5 -5 -5 -5 -5 -5 -5 -6 -6 -6 -6 -6
3 3 2 2 2 2 1 1 1 1 0 0 0 0 0 -0 -0 -1 -1 -2 -2 -3 -3 -3 -3 -4 -4 -4 -5 -5 -5 -5 -5 -5 -6 -6 -6 -6 -6 -6 -6 -6 -6
2 2 2 2 2 1 1 1 0 0 -0 -0 -0 -0 -1 -1 -1 -1 -2 -2 -2 -3 -3 -4 -4 -4 -4 -5 -5 -5 -5 -5 -6 -6 -6 -6 -6 -6 -6 -7 -7 -7 -7
2 2 2 1 1 1 0 0 0 -0 -1 -1 -1 -1 -1 -1 -2 -2 -2 -3 -3 -3 -4 -4 -4 -4 -5 -5 -5 -5 -5 -6 -6 -6 -7 -7 -7 -7 -7 -7 -8 -8 -8
1 1 1 1 1 0 0 -0 -0 -1 -1 -1 -2 -2 -2 -2 -2 -3 -3 -3 -3 -4 -4 -4 -4 -5 -5 -5 -5 -6 -6 -6 -6 -7 -7 -7 -7 -8 -8 -8 -8 -8 -8
1 1 1 0 0 -0 -0 -1 -1 -1 -2 -2 -2 -2 -2 -3 -3 -3 -3 -4 -4 -4 -4 -4 -4 -5 -5 -5 -6 -6 -6 -6 -7 -7 -7 -7 -8 -8 -8 -8 -9 -9 -9
1 1 0 -0 -0 -1 -1 -1 -2 -2 -2 -2 -2 -2 -3 -3 -3 -3 -4 -4 -4 -4 -4 -4 -5 -5 -6 -6 -6 -6 -6 -7 -7 -7 -8 -8 -8 -8 -9 -9 -9 -9 -9
0 0 -0 -1 -1 -1 -1 -2 -2 -2 -3 -3 -3 -3 -3 -4 -4 -4 -4 -4 -4 -4 -5 -5 -5 -5 -6 -6 -6 -7 -7 -7 -7 -8 -8 -8 -8 -9 -9 -9 -9 -9 -9
-0 -0 -1 -1 -1 -2 -2 -2 -3 -3 -3 -3 -3 -3 -4 -4 -4 -4 -4 -4 -5 -5 -5 -5 -5 -6 -6 -6 -7 -7 -7 -7 -8 -8 -8 -8 -9 -9 -9 -9 -9 -9 -10
-0 -1 -1 -1 -2 -2 -2 -2 -3 -3 -3 -3 -3 -4 -4 -4 -4 -4 -4 -5 -5 -5 -5 -5 -6 -6 -6 -6 -7 -7 -7 -7 -8 -8 -8 -8 -9 -9 -9 -9 -9 -9 -10
-1 -1 -2 -2 -2 -2 -3 -3 -3 -3 -3 -4 -4 -4 -4 -4 -4 -4 -5 -5 -5 -5 -5 -6 -6 -6 -6 -7 -7 -7 -7 -8 -8 -8 -8 -9 -9 -9 -9 -9 -9 -9 -9
-1 -2 -2 -2 -2 -3 -3 -3 -3 -3 -4 -4 -4 -4 -4 -4 -4 -5 -5 -5 -5 -5 -6 -6 -6 -6 -6 -7 -7 -7 -8 -8 -8 -8 -9 -9 -9 -9 -9 -9 -9 -9 -10
-1 -2 -2 -2 -2 -3 -3 -3 -3 -4 -4 -4 -4 -4 -4 -4 -5 -5 -5 -5 -6 -6 -6 -6 -6 -7 -7 -7 -7 -8 -8 -8 -8 -9 -9 -9 -9 -9 -9 -10 -10 -10 -10
-2 -2 -2 -3 -3 -3 -3 -3 -4 -4 -4 -4 -4 -4 -4 -5 -5 -5 -5 -5 -6 -6 -6 -6 -7 -7 -7 -7 -8 -8 -8 -8 -8 -9 -9 -9 -9 -10 -10 -10 -10 -10 -10
Wind_Speed
6 5 5 5 5 4 4 5 4 4 3 3 3 2 2 1 1 0 1 1 1 2 2 2 2 2 2 2 2 2 2 2 4 4 3 4 4 5 7 9 8 8 9
6 6 6 5 5 5 5 5 5 4 3 3 3 2 2 2 1 1 1 1 1 2 2 2 2 2 2 2 2 2 2 2 3 5 4 3 4 5 5 6 7 8 9
6 6 6 6 6 6 6 5 4 4 4 3 3 3 3 3 2 2 2 2 2 3 2 2 2 2 2 2 2 2 2 2 2 3 4 3 3 4 5 5 6 5 8
6 6 7 7 7 7 6 5 5 5 4 4 4 4 4 3 3 3 2 2 2 2 2 2 3 3 3 3 2 2 2 2 2 2 3 3 3 4 3 5 6 5 6
6 7 8 7 6 6 6 6 5 5 5 5 4 4 4 4 4 4 3 3 2 2 2 2 2 3 3 2 2 2 2 2 2 3 3 3 3 4 5 4 6 6 5
6 8 7 6 6 6 6 6 5 5 5 5 5 5 5 4 6 7 5 3 3 3 3 2 3 3 3 4 4 3 3 2 2 2 3 4 4 4 4 5 5 6 5
6 7 6 6 6 6 6 5 6 6 5 5 5 5 5 6 8 7 7 4 3 3 3 3 2 2 2 1 2 4 4 5 4 2 3 3 4 4 5 5 5 6 6
6 6 6 6 6 5 5 6 6 5 5 5 5 5 5 6 8 8 7 4 3 3 3 4 3 3 2 2 1 1 2 3 3 2 1 3 3 4 3 4 5 6 6
6 6 6 6 6 6 6 7 5 5 5 5 5 6 6 6 8 8 7 3 3 3 3 3 4 3 5 4 1 1 2 3 3 4 4 5 7 7 6 3 4 5 5
7 6 6 5 6 7 7 6 5 5 6 5 5 5 6 6 8 9 8 3 3 3 3 3 4 5 5 4 2 2 3 3 2 3 4 5 5 6 7 3 3 4 4
6 5 4 5 6 6 5 4 4 4 4 4 5 5 5 6 8 9 9 4 5 4 3 3 3 5 5 5 4 3 4 3 1 1 2 2 3 3 3 3 3 3 4
4 4 5 5 5 4 4 4 4 4 5 5 4 4 4 5 7 8 10 9 7 5 4 4 4 6 6 5 4 4 4 2 0 1 2 2 3 3 4 4 5 6 6
4 5 5 4 4 4 4 4 3 4 4 5 4 5 4 4 5 10 10 10 10 6 4 6 6 6 5 3 4 4 3 1 1 2 2 3 3 4 4 4 5 6 7
5 5 4 4 4 3 3 4 4 5 5 5 5 5 4 4 4 4 4 5 7 5 4 5 6 6 4 3 3 2 1 1 2 2 3 3 3 3 3 4 5 6 5
5 5 4 4 4 4 4 5 6 6 7 7 6 6 5 6 7 9 6 5 4 4 3 2 2 2 2 2 2 2 1 1 2 2 2 3 3 4 4 4 4 5 5
5 4 4 4 4 4 4 4 7 8 10 11 10 8 7 8 9 10 11 10 10 9 5 3 4 4 4 4 3 3 2 2 2 2 2 3 3 4 5 5 4 5 6
6 5 4 4 4 4 4 4 4 5 8 9 10 10 9 9 9 10 11 10 10 9 6 4 5 5 4 4 4 3 3 3 2 3 3 3 3 4 4 5 5 5 6
6 6 6 5 5 5 5 5 5 4 4 4 7 10 10 10 10 10 10 7 6 6 4 5 5 5 4 4 4 4 3 3 3 3 3 3 4 4 5 5 5 6 7
6 5 5 5 5 5 5 5 5 5 5 4 3 5 9 9 9 10 8 5 5 5 5 5 5 5 4 4 4 4 4 4 4 3 4 4 4 4 5 5 6 9 8
5 8 6 5 4 5 5 5 5 5 5 5 5 4 4 4 4 5 5 4 5 5 5 5 5 5 5 4 4 4 4 4 4 4 4 4 4 4 5 6 6 7 7
5 6 7 5 5 5 5 6 6 6 6 6 6 7 9 6 6 6 5 6 6 6 6 5 5 5 5 4 4 5 5 4 4 4 4 4 4 5 5 6 6 7 7
5 5 5 5 5 5 5 5 6 6 6 7 5 6 11 7 5 5 6 6 5 5 5 5 5 5 5 5 5 5 5 5 5 5 5 5 4 5 5 5 6 7 7
5 5 5 5 5 7 7 6 6 6 6 6 6 5 6 6 6 6 6 5 4 4 4 4 5 4 5 5 6 5 5 6 5 5 5 5 5 5 5 6 7 8 8
5 6 6 5 5 5 6 6 6 6 6 6 6 6 6 6 6 6 5 4 4 4 4 5 5 6 6 5 6 7 8 8 7 6 6 6 5 5 5 6 7 8 8
5 6 6 6 6 6 6 6 6 6 6 6 6 6 5 5 5 5 5 4 5 5 5 5 5 5 7 7 7 7 8 9 9 7 6 5 5 6 6 6 7 7 8
6 6 6 6 6 6 6 6 6 6 6 6 5 5 5 5 5 5 5 5 5 4 5 5 6 7 7 7 8 9 9 9 9 9 6 4 5 5 5 6 7 7 8
Wind_Direction
225 226 230 233 232 229 229 234 234 236 229 231 235 241 253 264 270 277 299 324 322 319 320 320 319 322 318 329 326 315 308 288 275 294 305 320 332 337 336 342 346 345 345
224 223 228 233 232 232 236 235 228 228 226 224 221 225 238 243 243 230 250 267 263 279 293 305 307 315 313 312 309 305 299 288 269 287 306 317 320 326 328 333 341 345 340
220 223 229 231 229 233 235 233 226 223 223 220 215 221 229 231 231 235 231 247 253 258 263 269 279 289 292 296 297 295 297 307 286 284 300 309 313 326 331 331 333 334 335
221 223 232 233 228 230 229 226 223 217 218 221 222 223 226 227 226 225 222 238 254 266 266 266 266 258 258 269 282 284 292 302 303 299 300 307 311 322 333 330 326 332 327
225 228 236 237 229 225 225 225 222 218 219 216 218 226 229 226 226 215 214 222 227 254 273 279 279 280 278 282 292 292 298 295 302 302 303 310 319 335 333 322 318 321 313
230 236 239 235 227 225 225 222 220 222 221 215 217 222 228 235 237 230 214 206 213 227 252 273 286 297 306 322 330 339 335 309 296 291 300 306 310 313 310 317 319 324 315
238 242 240 231 230 230 225 219 220 220 217 219 220 219 229 237 239 239 231 202 206 221 232 247 269 283 303 303 338 349 349 341 331 305 292 295 299 306 309 313 313 308 295
246 247 242 231 232 232 225 227 226 218 215 218 222 221 227 238 237 236 231 209 209 224 231 231 235 251 262 263 262 313 320 326 326 332 276 283 292 295 292 300 301 304 292
250 249 241 230 230 229 229 232 229 219 220 218 217 216 222 238 235 231 224 193 210 232 243 240 230 233 257 271 244 272 298 306 325 336 330 330 334 339 343 343 330 325 313
253 252 246 232 228 231 232 232 226 218 222 218 223 219 218 229 233 230 223 195 213 230 241 247 244 236 248 265 233 237 271 282 305 327 340 348 352 349 353 357 322 312 310
259 256 250 238 232 234 232 227 224 219 217 218 225 228 222 226 233 233 228 203 208 216 225 231 240 249 254 262 260 241 260 272 271 302 315 323 329 331 335 332 317 292 285
260 255 251 246 239 232 224 226 218 210 217 225 227 236 231 229 230 236 234 229 216 208 221 220 229 245 254 260 265 270 282 299 296 300 309 310 317 319 317 315 309 296 278
260 256 254 250 238 227 219 221 221 213 219 226 225 235 237 226 229 232 235 235 230 215 214 224 233 242 249 258 269 278 286 278 270 286 293 298 302 302 307 310 308 303 295
256 259 254 246 245 233 224 217 217 219 222 225 226 233 234 225 221 221 222 231 231 229 221 229 240 247 238 238 259 278 262 237 251 266 287 297 306 308 314 319 317 319 313
253 252 250 240 235 236 232 226 224 225 220 222 227 223 221 231 229 218 209 208 201 205 188 185 200 210 217 223 232 237 240 262 270 271 282 295 305 311 314 319 313 315 307
254 253 246 240 236 233 239 258 242 235 241 238 232 227 231 234 235 228 225 223 219 214 203 200 213 218 225 228 230 232 232 242 249 256 269 281 295 301 306 310 307 304 303
245 248 243 235 232 231 229 233 255 254 240 238 235 234 235 235 234 229 226 224 223 217 213 211 217 219 224 224 225 225 232 239 245 254 265 275 282 287 293 299 303 303 301
246 244 237 234 231 229 227 228 232 240 248 247 235 235 237 237 235 231 225 217 220 216 210 215 218 219 219 220 223 227 234 240 245 255 261 265 269 277 284 288 292 295 298
250 247 239 235 232 230 226 223 227 232 238 242 241 239 233 232 231 227 215 208 211 217 215 216 215 213 214 215 221 225 230 238 243 248 257 261 264 271 278 282 287 294 298
251 249 243 238 234 230 226 226 227 228 229 230 231 229 211 207 215 217 211 205 214 220 216 216 214 211 211 212 217 223 231 237 241 246 256 259 261 264 273 279 285 289 291
249 250 243 240 235 231 229 229 228 227 228 230 231 225 215 212 216 215 214 214 217 220 216 213 213 210 211 209 212 221 229 237 240 243 250 256 260 267 272 276 282 286 290
240 241 236 235 237 235 236 229 227 229 231 232 235 231 228 220 217 217 218 220 218 215 208 206 209 209 207 207 211 217 227 234 239 241 247 255 260 267 273 278 283 288 291
237 240 241 238 235 242 244 232 229 231 231 229 227 223 220 216 215 216 218 217 210 208 203 202 206 210 209 212 211 212 221 231 236 236 241 252 260 267 272 278 283 290 292
236 240 241 241 237 236 238 237 234 233 231 228 225 222 220 217 214 214 211 204 203 204 201 202 207 211 213 217 222 225 230 238 241 239 235 245 257 266 272 278 282 286 291
237 241 242 240 238 238 239 239 237 234 232 228 224 223 220 214 212 210 204 199 199 204 205 205 208 212 216 221 228 235 241 246 249 246 238 241 251 259 268 276 283 290 292
241 243 245 241 238 236 237 240 239 234 232 228 222 218 213 210 209 206 201 198 200 204 207 209 212 214 219 227 235 241 246 251 253 255 250 245 250 262 269 276 283 288 292
Height
1508 1507 1507 1506 1505 1504 1502 1502 1501 1500 1499 1498 1497 1496 1495 1494 1493 1491 1490 1489 1488 1487 1485 1484 1483 1481 1480 1479 1477 1476 1475 1473 1471 1468 1467 1465 1463 1461 1459 1456 1454 1452 1450
1505 1504 1503 1502 1501 1500 1499 1498 1498 1497 1496 1495 1494 1493 1492 1491 1489 1488 1487 1486 1485 1484 1482 1481 1479 1478 1477 1475 1474 1472 1471 1469 1468 1465 1463 1461 1459 1457 1455 1453 1450 1448 1446
1501 1500 1499 1499 1498 1497 1496 1495 1494 1493 1492 1491 1490 1489 1488 1487 1486 1485 1484 1483 1481 1480 1479 1477 1476 1475 1473 1472 1470 1469 1467 1466 1464 1462 1459 1458 1456 1454 1451 1449 1447 1445 1442
1497 1496 1495 1494 1494 1493 1492 1491 1490 1489 1488 1487 1486 1485 1484 1483 1482 1482 1480 1479 1478 1477 1475 1474 1473 1471 1470 1468 1466 1465 1464 1462 1461 1459 1456 1454 1452 1450 1447 1445 1443 1440 1438
1492 1492 1491 1490 1489 1488 1487 1486 1486 1485 1484 1483 1482 1481 1480 1479 1478 1477 1476 1475 1474 1473 1472 1470 1469 1467 1466 1465 1463 1461 1460 1459 1457 1455 1453 1451 1449 1446 1444 1441 1439 1436 1434
1488 1487 1486 1485 1484 1483 1482 1482 1481 1480 1479 1479 1478 1477 1476 1475 1474 1473 1472 1471 1470 1469 1468 1467 1465 1464 1462 1461 1460 1458 1457 1455 1453 1452 1449 1448 1445 1444 1441 1439 1435 1432 1429
1483 1482 1481 1480 1479 1479 1478 1477 1476 1475 1474 1474 1473 1472 1472 1471 1470 1469 1468 1467 1466 1465 1464 1463 1461 1460 1459 1457 1456 1455 1453 1452 1451 1449 1447 1445 1443 1440 1438 1435 1433 1430 1427
1478 1477 1476 1475 1474 1473 1472 1471 1471 1470 1469 1469 1468 1468 1467 1466 1466 1465 1464 1463 1462 1461 1460 1458 1457 1456 1455 1454 1452 1451 1449 1448 1447 1445 1444 1442 1440 1437 1435 1433 1430 1427 1424
1473 1472 1471 1470 1469 1468 1467 1466 1465 1465 1464 1463 1463 1462 1462 1461 1461 1460 1459 1458 1457 1456 1456 1454 1453 1452 1451 1450 1449 1447 1445 1444 1443 1442 1440 1438 1436 1434 1432 1429 1427 1424 1419
1468 1467 1466 1465 1463 1462 1461 1461 1460 1459 1458 1458 1457 1457 1456 1456 1456 1455 1455 1454 1453 1452 1451 1450 1449 1448 1448 1446 1445 1443 1442 1441 1439 1438 1436 1435 1433 1431 1429 1426 1423 1421 1417
1463 1462 1460 1459 1458 1457 1456 1455 1455 1454 1453 1452 1451 1451 1451 1451 1451 1450 1450 1449 1448 1448 1447 1446 1445 1444 1443 1442 1441 1440 1438 1437 1436 1434 1433 1431 1430 1428 1425 1423 1420 1418 1415
1458 1456 1455 1454 1453 1452 1451 1450 1449 1448 1447 1446 1446 1445 1445 1445 1445 1445 1445 1444 1444 1443 1442 1442 1441 1440 1439 1438 1437 1436 1435 1434 1432 1431 1429 1428 1426 1424 1421 1419 1417 1415 1412
1452 1451 1450 1448 1447 1446 1445 1444 1443 1443 1442 1441 1440 1440 1440 1440 1440 1440 1440 1439 1439 1438 1438 1438 1437 1436 1435 1434 1433 1432 1431 1430 1428 1427 1425 1424 1422 1420 1418 1416 1413 1411 1408
1447 1446 1444 1443 1442 1441 1440 1439 1438 1437 1436 1435 1435 1435 1434 1435 1435 1435 1434 1434 1434 1434 1433 1433 1433 1432 1431 1430 1429 1428 1427 1426 1425 1423 1422 1420 1419 1417 1414 1412 1409 1406 1403
1442 1440 1439 1438 1436 1435 1434 1433 1432 1431 1431 1430 1430 1430 1429 1429 1429 1430 1429 1429 1429 1429 1429 1428 1428 1428 1427 1426 1425 1424 1424 1423 1421 1420 1418 1417 1415 1413 1411 1409 1406 1403 1400
1436 1435 1434 1432 1431 1430 1429 1428 1427 1426 1426 1425 1425 1425 1424 1424 1424 1424 1424 1424 1424 1424 1424 1423 1423 1423 1422 1422 1421 1420 1420 1419 1417 1416 1415 1413 1411 1409 1407 1405 1403 1400 1396
1432 1430 1428 1427 1426 1424 1423 1422 1421 1421 1420 1420 1420 1419 1419 1419 1419 1419 1419 1419 1420 1420 1419 1419 1419 1419 1418 1418 1417 1417 1416 1415 1414 1412 1411 1410 1408 1406 1404 1402 1399 1396 1393
1426 1425 1423 1421 1420 1419 1418 1417 1416 1415 1414 1414 1415 1414 1414 1414 1414 1415 1415 1415 1415 1415 1414 1414 1414 1414 1414 1414 1413 1413 1412 1411 1410 1409 1407 1406 1404 1402 1400 1398 1395 1393 1389
1421 1419 1418 1416 1415 1414 1413 1412 1411 1410 1409 1409 1409 1409 1409 1409 1410 1410 1410 1410 1410 1410 1410 1410 1410 1410 1410 1409 1409 1408 1407 1406 1406 1405 1403 1402 1400 1398 1396 1394 1392 1389 1386
1415 1414 1412 1411 1409 1408 1407 1406 1405 1405 1404 1404 1404 1404 1404 1404 1404 1405 1405 1405 1405 1405 1405 1405 1405 1405 1405 1405 1404 1404 1403 1402 1401 1400 1399 1398 1396 1395 1393 1390 1388 1385 1382
1410 1408 1407 1405 1404 1403 1401 1401 1400 1399 1399 1398 1399 1399 1399 1399 1399 1400 1400 1400 1400 1400 1401 1401 1401 1401 1400 1400 1400 1399 1399 1398 1397 1396 1395 1394 1392 1391 1389 1387 1384 1382 1379
1404 1402 1401 1400 1398 1397 1396 1395 1394 1394 1394 1393 1393 1394 1394 1394 1394 1395 1395 1395 1396 1396 1396 1396 1396 1396 1396 1396 1395 1395 1394 1394 1393 1392 1391 1390 1388 1387 1385 1383 1380 1378 1375
1398 1397 1395 1394 1393 1392 1390 1389 1389 1388 1388 1388 1388 1389 1389 1389 1389 1390 1390 1391 1391 1391 1391 1391 1391 1391 1391 1391 1391 1391 1390 1389 1389 1388 1387 1386 1384 1383 1381 1379 1377 1374 1372
1393 1391 1390 1388 1387 1386 1385 1384 1383 1383 1382 1383 1383 1383 1384 1384 1384 1385 1386 1386 1386 1386 1387 1387 1387 1387 1387 1387 1387 1386 1386 1386 1385 1384 1383 1382 1381 1379 1378 1375 1373 1371 1368
1387 1385 1384 1382 1381 1380 1379 1378 1378 1377 1377 1377 1378 1378 1379 1379 1380 1380 1381 1381 1381 1382 1382 1382 1382 1383 1383 1383 1383 1382 1382 1382 1381 1380 1379 1378 1377 1376 1374 1372 1370 1368 1365
1381 1380 1378 1377 1375 1374 1373 1373 1372 1372 1372 1372 1373 1373 1374 1374 1375 1375 1376 1376 1377 1377 1378 1378 1378 1378 1378 1378 1378 1378 1378 1378 1377 1377 1376 1375 1373 1372 1371 1369 1367 1364 1362